Location: WWIN Observatory
(34.8953°N, 91.9583°W)
Time: 21:13:15
(UTC-06:00)

ISS - Visible Passes

Search period start: 20 November 2019 00:00
Search period end: 30 November 2019 00:00
Orbit: 412 x 421 km, 51.6° (Epoch: 21 November)

Date Brightness Start Highest point End Pass type
(mag) Time Alt. Az. Time Alt. Az. Time Alt. Az.
20 Nov -2.0 17:36:21 10° S 17:38:46 19° SE 17:40:55 11° E visible
20 Nov -1.3 19:12:13 10° WSW 19:13:51 23° W 19:13:51 23° W visible
21 Nov -3.5 18:23:35 10° WSW 18:26:54 63° NW 18:27:48 42° NNE visible
22 Nov -3.7 17:35:14 10° SW 17:38:32 65° SE 17:41:39 11° NE visible
22 Nov -0.8 19:13:32 10° WNW 19:14:34 14° NW 19:14:34 14° NW visible
23 Nov -1.8 18:24:17 10° W 18:27:00 22° NNW 18:28:20 18° N visible
24 Nov -2.6 17:35:22 10° WSW 17:38:30 36° NW 17:41:39 10° NNE visible
25 Nov -1.0 18:26:18 10° NW 18:27:19 11° NNW 18:28:20 10° N visible
26 Nov -1.3 17:36:31 10° WNW 17:38:39 16° NNW 17:40:48 10° N visible
